Weather History for PAFB - May, 2013

Change the Weather History Date:

Sunday, May 5, 2013

  Actual Average Record
Temperature  
Mean Temperature 29 °F -  
Max Temperature 37 °F 49 °F 64 °F (2004)
Min Temperature 21 °F 32 °F 21 °F (2013)
Degree Days  
Heating Degree Days 36    
Moisture  
Dew Point 15 °F    
Average Humidity 55    
Maximum Humidity 75    
Minimum Humidity 37    
Precipitation  
Precipitation 0.00 in - - ()
Sea Level Pressure  
Sea Level Pressure 30.12 in    
Wind  
Wind Speed 5 mph (SW)    
Max Wind Speed 16 mph    
Max Gust Speed -    
Visibility 10 miles    
Events      
Averages and records for this station are not official NWS values.
T = Trace of Precipitation, MM = Missing Value Source: NWS Daily Summary

Daily Weather History Graph

Daily Weather History Graph

Search for Another Location

Airport or City:

Trip Planner

Search our weather history database for the weather conditions in past years. The results will help you decide how hot, cold, wet, or windy it might be!

Date:

Astronomy

May. 05, 2013 Rise Set
Actual Time 5:01 AM AKDT 10:35 PM AKDT
Civil Twilight 3:39 AM AKDT 11:59 PM AKDT
Nautical Twilight Sun does not set Sun does not set
Astronomical Twilight Sun does not set Sun does not set
Moon 4:14 AM AKDT (5/5) 5:18 PM AKDT (5/5)
Length of Visible Light 20h 19m
Length of Day
17h 34m
Waning Crescent, 17% of the Moon is Illuminated
May 5
Waning Crescent
May 9
New
May 17
First Quarter
May 24
Full
May 31
Last Quarter

Hourly Weather History & Observations

Time (AKDT) Temp. Windchill Dew Point Humidity Pressure Visibility Wind Dir Wind Speed Gust Speed Precip Events Conditions
12:56 AM 27.0 °F - 18.0 °F 69% 30.03 in 10.0 mi Calm Calm - N/A   Overcast
1:56 AM 28.0 °F - 19.0 °F 69% 30.04 in 10.0 mi Calm Calm - N/A   Overcast
2:56 AM 24.1 °F 19.7 °F 16.0 °F 71% 30.06 in 10.0 mi East 3.5 mph - N/A   Overcast
3:56 AM 23.0 °F 14.7 °F 16.0 °F 74% 30.07 in 10.0 mi East 6.9 mph - N/A   Overcast
4:56 AM 21.9 °F 13.4 °F 15.1 °F 75% 30.09 in 10.0 mi ENE 6.9 mph - N/A   Overcast
5:56 AM 21.9 °F 14.5 °F 15.1 °F 75% 30.10 in 10.0 mi ENE 5.8 mph - N/A   Overcast
6:56 AM 23.0 °F 15.8 °F 15.1 °F 72% 30.11 in 10.0 mi East 5.8 mph - N/A   Overcast
7:56 AM 25.0 °F - 17.1 °F 72% 30.13 in 10.0 mi Calm Calm - N/A   Overcast
8:56 AM 28.0 °F - 18.0 °F 66% 30.14 in 10.0 mi Calm Calm - N/A   Partly Cloudy
9:56 AM 30.0 °F - 15.1 °F 54% 30.15 in 10.0 mi Calm Calm - N/A   Clear
10:56 AM 30.9 °F 19.8 °F 12.9 °F 47% 30.15 in 10.0 mi WSW 16.1 mph - N/A   Clear
11:56 AM 32.0 °F 22.1 °F 12.9 °F 45% 30.15 in 10.0 mi SW 13.8 mph - N/A   Clear
12:56 PM 33.1 °F 24.9 °F 12.0 °F 42% 30.15 in 10.0 mi SSW 10.4 mph - N/A   Clear
1:56 PM 34.0 °F 24.6 °F 12.9 °F 42% 30.15 in 10.0 mi SSW 13.8 mph - N/A   Clear
2:56 PM 35.1 °F 25.9 °F 14.0 °F 42% 30.15 in 10.0 mi WSW 13.8 mph - N/A   Clear
3:56 PM 36.0 °F 28.0 °F 12.9 °F 39% 30.14 in 10.0 mi SW 11.5 mph - N/A   Clear
4:56 PM 37.0 °F 29.3 °F 12.9 °F 37% 30.14 in 10.0 mi SSW 11.5 mph - N/A   Clear
5:56 PM 37.0 °F 28.9 °F 14.0 °F 39% 30.13 in 10.0 mi SW 12.7 mph - N/A   Clear
6:56 PM 37.0 °F 29.3 °F 14.0 °F 39% 30.12 in 10.0 mi WSW 11.5 mph - N/A   Clear
7:56 PM 36.0 °F 29.0 °F 14.0 °F 41% 30.12 in 10.0 mi SW 9.2 mph - N/A   Clear
8:56 PM 34.0 °F 27.2 °F 15.1 °F 46% 30.12 in 10.0 mi West 8.1 mph - N/A   Clear
9:56 PM 30.0 °F 22.4 °F 14.0 °F 51% 30.13 in 10.0 mi West 8.1 mph - N/A   Clear
10:56 PM 28.0 °F 24.2 °F 12.9 °F 53% 30.13 in 10.0 mi WSW 3.5 mph - N/A   Clear
11:56 PM 25.0 °F - 14.0 °F 63% 30.13 in 10.0 mi Calm Calm - N/A   Clear